Date String (YYYY-MM-DD hh:mm:ss) UTC,Instrument flags,Ambient pressure (hPa),Sample flow (lpm),Bypass flow (lpm),Sample temperature (°C),Ambient temperature (°C),ASC tube jacket temperature (°C),LED temperature (°C),Box temperature (°C),Sample RH (%),Span deviation,Mass concentration (μg/m³),Mass concentration (μg/m³),Mass concentration (μg/m³)
DateTimeUTC,F1_M11,P_M11,Q1_M11,Q2_M11,T1_M11,T2_M11,T3_M11,T4_M11,T5_M11,U1_M11,ZSPAN_M11,X0_M11,X2_M11,X1_M11
2022-07-02 23:00:00,,0827.5,5.00,0.00,29.8,28.1,00.0,38.2,31.4,28.1,0000.0,0012.25,0005.11,0003.91
2022-07-02 23:01:00,,0827.5,4.99,0.00,29.9,28.3,00.0,38.2,31.5,26.0,0000.0,0012.02,0004.98,0003.86
2022-07-02 23:02:00,,0827.5,5.00,0.00,29.9,28.4,00.0,38.3,31.5,25.9,0000.0,0011.47,0004.84,0003.80
2022-07-02 23:03:00,,0827.4,5.01,0.00,29.9,27.8,00.0,38.2,31.5,27.1,0000.0,0011.17,0004.72,0003.71
2022-07-02 23:04:00,,0827.4,4.99,0.00,29.8,27.1,00.0,38.2,31.3,25.4,0000.0,0010.90,0004.62,0003.64
2022-07-02 23:05:00,,0827.5,5.00,0.00,29.8,26.8,00.0,38.2,31.2,24.7,0000.0,0010.66,0004.57,0003.60
2022-07-02 23:06:00,,0827.4,5.00,0.00,29.7,26.8,00.0,38.2,31.1,25.7,0000.0,0009.65,0004.45,0003.56
2022-07-02 23:07:00,,0827.4,4.99,0.00,29.6,26.9,00.0,38.2,31.1,26.0,0000.0,0008.76,0004.41,0003.54
2022-07-02 23:08:00,,0827.4,5.00,0.00,29.6,27.1,00.0,38.2,31.1,26.2,0000.0,0008.72,0004.32,0003.51
2022-07-02 23:09:00,,0827.4,5.00,0.00,29.6,27.4,00.0,38.2,31.2,27.9,0000.0,0008.69,0004.31,0003.49
2022-07-02 23:10:00,,0827.3,5.01,0.00,29.6,27.6,00.0,38.2,31.2,28.1,0000.0,0008.68,0004.31,0003.48
2022-07-02 23:11:00,,0827.4,4.99,0.00,29.6,27.8,00.0,38.2,31.3,28.2,0000.0,0008.63,0004.25,0003.45
2022-07-02 23:12:00,,0827.4,5.00,0.00,29.6,28.0,00.0,38.2,31.4,27.5,0000.0,0008.54,0004.24,0003.46
2022-07-02 23:13:00,,0827.4,5.00,0.00,29.6,28.2,00.0,38.2,31.4,27.6,0000.0,0008.47,0004.23,0003.46
2022-07-02 23:14:00,,0827.4,5.01,0.00,29.7,28.3,00.0,38.2,31.5,25.0,0000.0,0008.46,0004.22,0003.48
2022-07-02 23:15:00,,0827.4,5.01,0.00,29.7,28.5,00.0,38.3,31.5,24.4,0000.0,0008.10,0004.20,0003.50
2022-07-02 23:16:00,,0827.4,5.00,0.00,29.7,28.5,00.0,38.3,31.6,25.2,0000.0,0007.93,0004.21,0003.51
2022-07-02 23:17:00,,0827.3,4.99,0.00,29.7,27.9,00.0,38.2,31.5,26.5,0000.0,0007.84,0004.17,0003.49
2022-07-02 23:18:00,,0827.3,5.00,0.00,29.7,27.2,00.0,38.2,31.3,25.4,0000.0,0007.82,0004.09,0003.46
2022-07-02 23:19:00,,0827.3,5.00,0.00,29.6,27.0,00.0,38.2,31.2,25.9,0000.0,0008.15,0004.06,0003.44
2022-07-02 23:20:00,,0827.2,5.01,0.00,29.5,27.1,00.0,38.2,31.2,26.1,0000.0,0008.13,0003.97,0003.42
2022-07-02 23:21:00,,0827.2,5.00,0.00,29.5,27.2,00.0,38.2,31.2,25.7,0000.0,0008.04,0003.92,0003.41
2022-07-02 23:22:00,,0827.2,5.00,0.00,29.5,27.4,00.0,38.2,31.2,25.1,0000.0,0008.29,0003.93,0003.41
2022-07-02 23:23:00,,0827.2,5.00,0.00,29.5,27.6,00.0,38.2,31.3,25.7,0000.0,0009.92,0004.00,0003.42
2022-07-02 23:24:00,,0827.2,5.00,0.00,29.5,27.8,00.0,38.2,31.3,25.6,0000.0,0010.19,0004.05,0003.42
2022-07-02 23:25:00,,0827.2,4.99,0.00,29.5,28.0,00.0,38.2,31.4,25.7,0000.0,0010.34,0004.06,0003.42
2022-07-02 23:26:00,,0827.2,4.99,0.00,29.6,28.2,00.0,38.2,31.4,25.7,0000.0,0010.76,0004.07,0003.41
2022-07-02 23:27:00,,0827.2,5.00,0.00,29.6,28.4,00.0,38.2,31.5,25.8,0000.0,0010.80,0004.06,0003.40
2022-07-02 23:28:00,,0827.2,5.00,0.00,29.6,28.3,00.0,38.2,31.5,24.7,0000.0,0011.48,0004.15,0003.44
2022-07-02 23:29:00,,0827.2,5.01,0.00,29.6,27.7,00.0,38.2,31.4,24.9,0000.0,0011.83,0004.21,0003.47
2022-07-02 23:30:00,,0827.5,5.00,0.00,29.6,27.2,00.0,38.2,31.3,25.1,0000.0,0011.67,0004.26,0003.50
2022-07-02 23:31:00,,0827.3,5.00,0.00,29.5,27.1,00.0,38.2,31.2,25.1,0000.0,0011.56,0004.30,0003.52
2022-07-02 23:32:00,,0827.4,4.99,0.00,29.5,27.2,00.0,38.2,31.2,25.5,0000.0,0011.82,0004.38,0003.54
2022-07-02 23:33:00,,0827.4,5.01,0.00,29.4,27.3,00.0,38.2,31.2,25.6,0000.0,0012.16,0004.44,0003.58
2022-07-02 23:34:00,,0827.4,4.99,0.00,29.4,27.6,00.0,38.2,31.2,26.3,0000.0,0011.17,0004.44,0003.59
2022-07-02 23:35:00,,0827.4,4.99,0.00,29.4,27.8,00.0,38.2,31.3,28.0,0000.0,0011.12,0004.47,0003.60
2022-07-02 23:36:00,,0827.3,5.00,0.00,29.5,28.0,00.0,38.2,31.4,29.0,0000.0,0010.98,0004.48,0003.61
2022-07-02 23:37:00,,0827.3,4.99,0.00,29.5,28.1,00.0,38.2,31.4,28.9,0000.0,0010.73,0004.53,0003.63
2022-07-02 23:38:00,,0827.4,5.00,0.00,29.5,28.3,00.0,38.2,31.5,29.0,0000.0,0010.74,0004.54,0003.63
2022-07-02 23:39:00,,0827.3,5.01,0.00,29.6,28.4,00.0,38.2,31.5,27.8,0000.0,0010.16,0004.54,0003.63
2022-07-02 23:40:00,,0827.3,5.01,0.00,29.6,28.2,00.0,38.2,31.5,27.9,0000.0,0009.77,0004.56,0003.65
2022-07-02 23:41:00,,0827.3,5.00,0.00,29.6,27.5,00.0,38.1,31.4,28.2,0000.0,0009.65,0004.61,0003.67
2022-07-02 23:42:00,,0827.3,5.00,0.00,29.5,27.1,00.0,38.1,31.3,27.7,0000.0,0010.09,0004.73,0003.69
2022-07-02 23:43:00,,0827.2,5.01,0.00,29.5,27.1,00.0,38.1,31.2,27.9,0000.0,0010.34,0004.76,0003.71
2022-07-02 23:44:00,,0827.2,5.00,0.00,29.4,27.2,00.0,38.1,31.2,28.1,0000.0,0009.89,0004.73,0003.73
2022-07-02 23:45:00,,0827.2,4.99,0.00,29.4,27.4,00.0,38.1,31.2,27.7,0000.0,0009.56,0004.73,0003.75
2022-07-02 23:46:00,,0827.2,5.00,0.00,29.4,27.6,00.0,38.1,31.2,28.0,0000.0,0009.57,0004.74,0003.77
2022-07-02 23:47:00,,0827.2,5.00,0.00,29.4,27.8,00.0,38.1,31.3,27.9,0000.0,0009.67,0004.77,0003.79
2022-07-02 23:48:00,,0827.2,4.99,0.00,29.4,28.0,00.0,38.1,31.4,27.7,0000.0,0009.69,0004.73,0003.81
2022-07-02 23:49:00,,0827.2,5.00,0.00,29.5,28.2,00.0,38.1,31.4,27.9,0000.0,0009.59,0004.73,0003.83
2022-07-02 23:50:00,,0827.2,4.99,0.00,29.5,28.4,00.0,38.2,31.5,27.9,0000.0,0009.70,0004.70,0003.83
2022-07-02 23:51:00,,0827.2,5.00,0.00,29.6,28.5,00.0,38.2,31.5,27.5,0000.0,0010.01,0004.72,0003.84
2022-07-02 23:52:00,,0827.2,5.01,0.00,29.6,28.1,00.0,38.2,31.5,27.8,0000.0,0009.86,0004.68,0003.83
2022-07-02 23:53:00,,0827.2,5.00,0.00,29.5,27.4,00.0,38.1,31.4,27.9,0000.0,0009.45,0004.57,0003.82
2022-07-02 23:54:00,,0827.2,5.00,0.00,29.5,27.2,00.0,38.1,31.3,28.1,0000.0,0009.09,0004.53,0003.81
2022-07-02 23:55:00,,0827.2,5.00,0.00,29.4,27.2,00.0,38.1,31.2,27.5,0000.0,0009.06,0004.55,0003.79
2022-07-02 23:56:00,,0827.2,5.00,0.00,29.4,27.3,00.0,38.1,31.2,26.8,0000.0,0009.75,0004.58,0003.78
2022-07-02 23:57:00,,0827.2,4.99,0.00,29.4,27.5,00.0,38.1,31.2,26.6,0000.0,0010.32,0004.57,0003.76
2022-07-02 23:58:00,,0827.2,5.00,0.00,29.4,27.7,00.0,38.1,31.3,26.9,0000.0,0010.33,0004.55,0003.74
2022-07-02 23:59:00,,0827.2,4.99,0.00,29.4,27.9,00.0,38.1,31.3,26.7,0000.0,0010.25,0004.54,0003.72
